[[{"header":{"parameterUnit":"m.s-1","parameterCategory":1,"la1":30.2992,"la2":30.254,"lo1":-89.0895,"lo2":-89.0443,"dy":0.0025,"dx":0.0025,"nx":19,"ny":19,"refTime":"2026-04-26T21:00:00:Z","depth":0,"parameterNumber":2,"parameterNumberName":"U-component_of_WINDS"},"data":[0,0,0,-1.938,-1.938,-1.9396,-1.9396,-1.9417,-1.9417,0,0,0,0,0,0,0,0,0,0,0,-1.9376,-1.9376,-1.938,-1.938,-1.9396,-1.9396,-1.9417,-1.9417,0,0,0,0,0,0,0,0,0,0,0,-1.9376,-1.9376,-1.9376,-1.9381,-1.9396,-1.9396,-1.9417,-1.9405,0,0,0,0,0,0,0,0,0,0,-1.939,-1.9387,-1.9376,-1.9376,-1.9381,-1.9396,-1.9396,-1.9404,-1.9406,-1.9411,0,-1.9415,0,-1.9417,-1.9419,-1.9419,0,0,0,-1.938,-1.9385,-1.9389,-1.9376,-1.9381,-1.9396,-1.9389,-1.9405,-1.9407,-1.9413,-1.9416,-1.9416,-1.9417,-1.9419,-1.9419,-1.945,-1.945,0,0,-1.9379,-1.9379,-1.9388,-1.939,-1.9387,-1.9388,-1.9389,-1.9406,-1.9409,-1.9416,-1.9417,-1.9417,-1.9419,-1.9419,-1.9449,-1.945,0,0,0,-1.9377,-1.9379,-1.9382,-1.9389,-1.9392,-1.9389,-1.939,-1.9408,-1.941,-1.9417,-1.9418,-1.9419,-1.942,-1.9449,-1.9449,-1.9456,0,0,0,-1.9377,-1.9377,-1.9381,-1.9382,-1.9392,-1.94,-1.9392,-1.9408,-1.941,-1.9418,-1.9419,-1.942,-1.9449,-1.9449,-1.9456,-1.9459,0,0,0,-1.9375,-1.9377,-1.9379,-1.9382,-1.9388,-1.94,-1.9402,-1.9409,-1.9411,-1.9419,-1.942,-1.9449,-1.9449,-1.9455,-1.9459,-1.9467,0,0,0,-1.9373,-1.9386,-1.938,-1.9394,-1.9388,-1.9404,-1.9402,-1.9414,-1.9422,-1.942,-1.9449,-1.9449,-1.9455,-1.9458,-1.9466,-1.9473,-1.9476,0,0,-1.9389,-1.9387,-1.9396,-1.9391,-1.9408,-1.9402,-1.9421,-1.9429,-1.943,-1.9443,-1.9444,-1.9456,-1.9458,-1.9467,-1.9495,-1.9498,0,0,0,-1.9401,-1.9407,-1.9412,-1.9419,-1.9426,-1.9431,-1.9436,-1.944,-1.9451,-1.9436,-1.9462,-1.9463,-1.9468,-1.9471,-1.9473,-1.9477,-1.9451,-1.9451,-1.9451,-1.9421,-1.9423,-1.9437,-1.944,-1.9448,-1.9454,-1.946,-1.9465,-1.9464,-1.947,-1.9473,-1.9491,-1.9494,-1.9496,-1.95,-1.9478,-1.9478,-1.9478,-1.9478,-1.9443,-1.9452,-1.9451,-1.9464,-1.9466,-1.9477,-1.9484,-1.9483,-1.9494,-1.9488,-1.9492,-1.9484,-1.9498,-1.9502,-1.9479,-1.9479,-1.9479,-1.9479,-1.9479,-1.9456,-1.946,-1.9464,-1.9476,-1.9486,-1.9489,-1.95,-1.9502,-1.9503,-1.9507,-1.9511,-1.9511,-1.951,-1.9509,-1.9509,-1.9509,-1.951,-1.951,-1.951,-1.9467,-1.9471,-1.948,-1.9489,-1.9494,-1.9502,-1.9509,-1.9515,-1.9522,-1.9522,-1.9522,-1.952,-1.95,-1.9494,-1.951,-1.951,-1.951,-1.951,-1.951,-1.9487,-1.9483,-1.9496,-1.9502,-1.9513,-1.9522,-1.9524,-1.9536,-1.9542,-1.9547,-1.9545,-1.953,-1.9529,-1.9527,-1.9522,-1.9545,-1.9545,-1.9545,-1.9545,-1.9496,-1.9496,-1.951,-1.9519,-1.9529,-1.9533,-1.9548,-1.9555,-1.9561,-1.9564,-1.9562,-1.9556,-1.9554,-1.9554,-1.9552,-1.9547,-1.9575,-1.9575,-1.9575,-1.9508,-1.9509,-1.9522,-1.9527,-1.9537,-1.9545,-1.9559,-1.957,-1.9577,-1.9577,-1.9567,-1.9566,-1.9556,-1.9554,-1.9551,-1.9548,-1.954,0,0]},{"header":{"parameterUnit":"m.s-1","parameterCategory":1,"la1":30.2992,"la2":30.254,"lo1":-89.0895,"lo2":-89.0443,"dy":0.0025,"dx":0.0025,"nx":19,"ny":19,"refTime":"2026-04-26T21:00:00:Z","depth":0,"parameterNumber":3,"parameterNumberName":"V-component_of_WINDS"},"data":[0,0,0,3.8654,3.8656,3.8749,3.8749,3.8866,3.8867,0,0,0,0,0,0,0,0,0,0,0,3.8628,3.8628,3.8654,3.8657,3.8749,3.8749,3.8866,3.8868,0,0,0,0,0,0,0,0,0,0,0,3.8627,3.8628,3.8629,3.8657,3.8748,3.8749,3.8866,3.8796,0,0,0,0,0,0,0,0,0,0,3.8707,3.8683,3.8628,3.8629,3.8657,3.8748,3.8749,3.8793,3.8801,3.8825,0,3.8847,0,3.8859,3.8875,3.8876,0,0,0,3.8656,3.8676,3.8701,3.8629,3.8658,3.8748,3.8707,3.8797,3.8806,3.8835,3.8849,3.8853,3.8861,3.8876,3.8877,3.9022,3.9023,0,0,3.8651,3.8644,3.8695,3.8707,3.8693,3.8704,3.871,3.8803,3.8817,3.8849,3.8856,3.8863,3.8877,3.8878,3.9021,3.9022,0,0,0,3.8637,3.864,3.8663,3.8702,3.8719,3.8707,3.8713,3.8812,3.882,3.8857,3.8865,3.8878,3.8879,3.902,3.9022,3.9052,0,0,0,3.8634,3.8632,3.8661,3.8657,3.8717,3.8767,3.8721,3.8814,3.8825,3.8864,3.8878,3.888,3.902,3.9021,3.9049,3.9067,0,0,0,3.8621,3.8631,3.8644,3.8657,3.8696,3.8765,3.8779,3.8816,3.8829,3.8876,3.8881,3.9019,3.9021,3.9047,3.9063,3.9104,0,0,0,3.8606,3.8668,3.8645,3.8717,3.8696,3.8784,3.8778,3.8844,3.8887,3.8878,3.902,3.9021,3.9046,3.9061,3.9102,3.9138,3.9152,0,0,3.868,3.8677,3.872,3.8702,3.8793,3.877,3.8865,3.891,3.892,3.8987,3.8991,3.905,3.9063,3.9104,3.9234,3.9246,0,0,0,3.8741,3.8772,3.8798,3.884,3.8877,3.8911,3.8943,3.896,3.9018,3.8953,3.9076,3.9083,3.9108,3.9125,3.9135,3.9157,3.9029,3.9029,3.9029,3.8836,3.8847,3.892,3.8943,3.8984,3.9017,3.9052,3.908,3.9077,3.9106,3.9126,3.9205,3.9225,3.9232,3.9255,3.9146,3.9146,3.9146,3.9146,3.8947,3.8993,3.8991,3.9061,3.9072,3.913,3.9166,3.9162,3.9219,3.919,3.9212,3.918,3.9245,3.9265,3.9149,3.9148,3.9148,3.9148,3.9148,3.9011,3.9035,3.9056,3.912,3.9168,3.9188,3.9244,3.9251,3.9259,3.928,3.9303,3.9303,3.9304,3.9291,3.9291,3.9291,3.9292,3.9292,3.9292,3.9069,3.9092,3.9138,3.9185,3.9214,3.9254,3.929,3.9318,3.9352,3.9354,3.9354,3.9349,3.9249,3.9224,3.9296,3.9295,3.9295,3.9294,3.9294,3.9177,3.9155,3.9226,3.9256,3.9312,3.9361,3.9371,3.9429,3.9454,3.9481,3.9473,3.9397,3.9393,3.9385,3.9365,3.9469,3.9469,3.9469,3.9469,3.9232,3.9231,3.9307,3.9355,3.9402,3.9419,3.9499,3.9529,3.9555,3.9571,3.9557,3.953,3.9522,3.9523,3.9513,3.9494,3.9629,3.9629,3.9629,3.93,3.9305,3.9372,3.9399,3.9445,3.9484,3.9561,3.9615,3.964,3.9636,3.9584,3.9578,3.9535,3.952,3.9514,3.9497,3.9463,0,0]}]]